TimeMST,TemperatureF,Dew PointF,Humidity,Sea Level PressureIn,VisibilityMPH,Wind Direction,Wind SpeedMPH,Gust SpeedMPH,PrecipitationIn,Events,Conditions,WindDirDegrees,DateUTC
12:53 AM,23.0,18.0,81,30.29,10.0,West,4.6,-,N/A,,Clear,270,2013-01-09 07:53:00
1:53 AM,21.9,17.1,82,30.30,10.0,WSW,5.8,-,N/A,,Clear,250,2013-01-09 08:53:00
2:53 AM,21.0,16.0,81,30.28,10.0,WNW,8.1,-,N/A,,Clear,300,2013-01-09 09:53:00
3:53 AM,24.1,18.0,77,30.35,10.0,SW,9.2,-,N/A,,Clear,220,2013-01-09 10:53:00
4:53 AM,24.1,18.0,77,30.38,10.0,SW,8.1,-,N/A,,Clear,220,2013-01-09 11:53:00
5:53 AM,27.0,19.0,72,30.41,10.0,SSW,11.5,-,N/A,,Clear,210,2013-01-09 12:53:00
6:53 AM,19.9,15.1,81,30.46,10.0,SW,5.8,-,N/A,,Clear,230,2013-01-09 13:53:00
7:53 AM,26.1,19.0,75,30.45,10.0,SW,9.2,-,N/A,,Clear,220,2013-01-09 14:53:00
8:53 AM,37.9,25.0,60,30.45,10.0,SW,8.1,-,N/A,,Clear,230,2013-01-09 15:53:00
9:53 AM,43.0,26.1,51,30.44,10.0,SW,9.2,-,N/A,,Clear,230,2013-01-09 16:53:00
10:53 AM,48.0,26.1,42,30.39,10.0,SSW,13.8,-,N/A,,Clear,210,2013-01-09 17:53:00
11:53 AM,50.0,24.1,36,30.37,10.0,SW,12.7,-,N/A,,Clear,220,2013-01-09 18:53:00
12:53 PM,53.1,19.9,27,30.32,10.0,SSW,18.4,25.3,N/A,,Clear,200,2013-01-09 19:53:00
1:53 PM,54.0,17.1,23,30.30,10.0,South,20.7,25.3,N/A,,Clear,190,2013-01-09 20:53:00
2:53 PM,54.0,18.0,24,30.30,10.0,SSW,13.8,-,N/A,,Clear,200,2013-01-09 21:53:00
3:53 PM,51.1,19.0,28,30.28,10.0,South,9.2,-,N/A,,Clear,190,2013-01-09 22:53:00
4:53 PM,37.0,21.0,52,30.30,10.0,South,9.2,-,N/A,,Clear,170,2013-01-09 23:53:00
5:53 PM,37.9,23.0,55,30.30,10.0,South,19.6,-,N/A,,Clear,170,2013-01-10 00:53:00
6:53 PM,37.0,24.1,59,30.30,10.0,South,16.1,-,N/A,,Clear,180,2013-01-10 01:53:00
7:53 PM,34.0,23.0,64,30.28,10.0,South,18.4,-,N/A,,Clear,190,2013-01-10 02:53:00
8:53 PM,34.0,21.9,61,30.25,10.0,South,17.3,-,N/A,,Clear,180,2013-01-10 03:53:00
9:53 PM,30.0,21.9,72,30.24,10.0,South,18.4,-,N/A,,Clear,180,2013-01-10 04:53:00
10:53 PM,30.9,23.0,72,30.22,10.0,South,16.1,-,N/A,,Clear,180,2013-01-10 05:53:00
11:53 PM,32.0,23.0,69,30.20,10.0,SSW,15.0,-,N/A,,Clear,200,2013-01-10 06:53:00